SL-19 DEB, 23496

Orbit data source: Space-Track

SL-19 DEB, 23496 is space debris in LEO originally from a launch on Mon, 26 Dec 1994 UTC launched from the Tyuratam Missile And Space Complex (TTMTR). Debris objects in space refer to the collection of defunct objects orbiting the Earth. Examples of debris include non-operational satellites, rocket bodies, and fragments generated from explosions, collisions, or faulty payload assembly.

Loading next visibility...
Identifier
23496, 1994-085U
Orbit
LEO
Country
Flag of CISCIS
Related business
Manufacturer
Unknown
Mission
Spacecraft
Bus & Motor
Unknown
Mass
Unknown
Launch date (UTC)
1994-12-26 (31 years ago)
Launch vehicle
Unknown
Launch site
Tyuratam Missile And Space Complex (TTMTR)
Object type
Payload
Rocket body
Debris
Shape & HBR
Unknown shape, 0.1 m
Radar Cross Section
Medium (>0.1 m² and <1 m²)

Expand to show TLE details & history
Last TLE update: 2 days ago

TLE from 2 days ago
0 SL-19 DEB
1 23496U 94085U   25308.46929601  .00004161  00000-0  11166+0 0  9991
2 23496  64.8295 212.5695 0156123  10.6342 163.8902 11.33310804273807
Epoch: 2025-11-04T11:15Z
TLE epoch observation values (Epoch: 2025-11-04T11:15:47.175Z)
Latitude
4.45305°
Longitude
177.57929°
Altitude
2,120.94 km
Speed
6.798 km/s
True Right ascension
02h 01m 55s
True Declination
4° 25' 51"
Sunlit
Object was in full shadow at epoch
Visualization orbit readout
Latitude
Unknown
Longitude
Unknown
Altitude
Unknown
Speed
Unknown
Apparent Right ascension
Unknown
Apparent Declination
Unknown
Sunlit
N/A
Visualization observer readout
Local Sidereal Time
08:13:43
Azimuth
Unknown
Elevation
Unknown
Doppler factor
Unknown
Orbital elements
Apogee altitude
2,123.482 km
Perigee altitude
1,862.103 km
Semi-major axis
8,370.929 km
Eccentricity
0.01561
Inclination
64.8295°
RAAN
212.5695°
Arg. of periapsis
10.6342°
True anomaly
164.37747°
Mean anomaly
163.8902°
Eccentric anomaly
164.13474°
Mean motion
2.83389 °/min
Orbital period
127.03 mins
BSTAR
0.11166
Loading maneuver chart data...
Computing Atmospheric mass density...
Loading historical data...
Loading historical data...
Loading historical data...
Loading historical data...
Loading historical data...
Loading historical data...
Loading historical data...

Documentation

Showing up to 5 results
|